Location: Unspecified
(38.6830°S, 0.0000°E)
Time: 19:42:53
(UTC+00:00)

Envisat - Pass Details

Date: 27 May 2019
Orbit: 764 x 766 km, 98.1° (Epoch: 24 June)

Event Time Altitude Azimuth Distance (km) Brightness Sun altitude
Rises 05:16:48 0° 53° (NE) 3,230 7.4 -20.7°
Reaches altitude 10° 05:19:38 10° 70° (ENE) 2,313 6.7 -20.2°
Maximum altitude 05:23:15 20° 115° (ESE) 1,737 5.5 -19.5°
Drops below altitude 10° 05:26:54 10° 160° (SSE) 2,334 5.6 -18.8°
Sets 05:29:47 0° 176° (S) 3,269 6.2 -18.2°
